"SCLK","SCET","ORBIT_NUMBER","ALTITUDE","LATITUDE_PLANEOGRAPHIC","LATITUDE_PLANETOCENTRIC","LOCAL_TRUE_SOLAR_TIME","WEST_LONGITUDE","X_SUN_DIR_DISTANCE","RHO_PRP_SUN_DISTANCE","SOLAR_ZENITH_ANGLE","ELECTRON_PLASMA_FREQUENCY","FPE_QUALITY","FPP_VERIFICATION","ELECTRON_PLASMA_DENSITY","ELECTRON_CYCLOTRON_PERIOD","FCP_QUALITY","B_MAGNITUDE"
"1/0367006257.50236",2014-12-18T18:11:01.785,13915,1563.00,29.91,29.69,"23:53:40",217.76,-1.400,0.410,163.55,6.30e+01,2,,4.92e+01,2.62e+00,1,1.36e+01
"1/0367006265.20286",2014-12-18T18:11:09.328,13915,1552.00,30.20,29.97,"23:51:30",217.77,-1.400,0.410,163.46,6.70e+01,2,,5.57e+01,2.70e+00,2,1.32e+01
"1/0367006272.55872",2014-12-18T18:11:16.871,13915,1541.00,30.48,30.25,"23:49:20",217.78,-1.390,0.410,163.35,6.60e+01,2,,5.40e+01,2.70e+00,2,1.32e+01
"1/0367006280.25922",2014-12-18T18:11:24.414,13915,1530.00,30.77,30.53,"23:47:10",217.79,-1.390,0.420,163.25,6.70e+01,2,,5.57e+01,2.70e+00,2,1.32e+01
"1/0367006287.61508",2014-12-18T18:11:31.957,13915,1520.00,31.05,30.82,"23:45:00",217.80,-1.380,0.420,163.14,6.50e+01,2,,5.24e+01,2.67e+00,1,1.34e+01
"1/0367006295.31624",2014-12-18T18:11:39.501,13915,1509.00,31.34,31.10,"23:42:49",217.81,-1.380,0.420,163.03,6.30e+01,2,,4.92e+01,2.67e+00,1,1.34e+01
"1/0367006303.01674",2014-12-18T18:11:47.044,13915,1498.00,31.63,31.39,"23:40:39",217.82,-1.380,0.420,162.91,6.40e+01,2,,5.08e+01,2.65e+00,2,1.35e+01
"1/0367006310.37260",2014-12-18T18:11:54.587,13915,1487.00,31.92,31.68,"23:38:29",217.83,-1.370,0.420,162.78,6.20e+01,2,,4.77e+01,2.65e+00,2,1.35e+01
"1/0367006318.07310",2014-12-18T18:12:02.130,13915,1477.00,32.21,31.97,"23:36:19",217.84,-1.370,0.420,162.66,6.50e+01,2,,5.24e+01,2.67e+00,1,1.34e+01
"1/0367006325.42896",2014-12-18T18:12:09.673,13915,1466.00,32.50,32.26,"23:36:26",217.84,-1.360,0.430,162.53,6.40e+01,2,,5.08e+01,2.67e+00,1,1.34e+01
"1/0367006333.13011",2014-12-18T18:12:17.217,13915,1455.00,32.80,32.55,"23:34:16",217.85,-1.360,0.430,162.39,6.30e+01,2,,4.92e+01,2.66e+00,1,1.34e+01
"1/0367006340.48597",2014-12-18T18:12:24.760,13915,1445.00,33.09,32.84,"23:32:06",217.86,-1.360,0.430,162.25,6.00e+01,2,,4.46e+01,2.67e+00,1,1.34e+01
"1/0367006348.18647",2014-12-18T18:12:32.303,13915,1434.00,33.39,33.14,"23:29:56",217.87,-1.350,0.430,162.10,5.90e+01,2,,4.32e+01,2.65e+00,1,1.35e+01
"1/0367006355.54233",2014-12-18T18:12:39.846,13915,1424.00,33.68,33.43,"23:27:45",217.88,-1.350,0.440,161.95,5.60e+01,2,,3.89e+01,2.66e+00,1,1.34e+01
"1/0367006363.24283",2014-12-18T18:12:47.389,13915,1413.00,33.98,33.73,"23:27:53",217.88,-1.340,0.440,161.80,5.60e+01,2,,3.89e+01,2.67e+00,1,1.34e+01
"1/0367006370.59935",2014-12-18T18:12:54.933,13915,1403.00,34.28,34.03,"23:25:43",217.89,-1.340,0.440,161.64,5.70e+01,2,,4.03e+01,2.73e+00,1,1.31e+01
"1/0367006378.29985",2014-12-18T18:13:02.476,13915,1392.00,34.58,34.33,"23:23:32",217.90,-1.340,0.440,161.48,5.40e+01,2,,3.62e+01,2.71e+00,1,1.32e+01
"1/0367006386.00035",2014-12-18T18:13:10.019,13915,1382.00,34.89,34.63,"23:23:40",217.90,-1.330,0.450,161.32,5.30e+01,2,,3.48e+01,2.70e+00,1,1.32e+01
"1/0367006393.35621",2014-12-18T18:13:17.562,13915,1371.00,35.19,34.93,"23:21:30",217.91,-1.330,0.450,161.15,5.00e+01,1,,3.10e+01,2.68e+00,1,1.33e+01
"1/0367006401.05671",2014-12-18T18:13:25.105,13915,1361.00,35.50,35.23,"23:19:19",217.92,-1.320,0.450,160.97,4.90e+01,2,,2.98e+01,2.66e+00,1,1.34e+01
"1/0367006408.41323",2014-12-18T18:13:32.649,13915,1350.00,35.80,35.54,"23:19:27",217.92,-1.320,0.460,160.80,4.70e+01,1,,2.74e+01,2.59e+00,2,1.38e+01
"1/0367006416.11373",2014-12-18T18:13:40.192,13915,1340.00,36.11,35.85,"23:17:17",217.93,-1.310,0.460,160.61,4.50e+01,2,,2.51e+01,2.57e+00,1,1.39e+01
"1/0367006423.46959",2014-12-18T18:13:47.735,13915,1330.00,36.42,36.15,"23:17:24",217.93,-1.310,0.460,160.43,4.40e+01,1,,2.40e+01,2.55e+00,1,1.40e+01
"1/0367006431.17009",2014-12-18T18:13:55.278,13915,1319.00,36.73,36.46,"23:15:14",217.94,-1.310,0.470,160.24,3.90e+01,1,,1.89e+01,2.58e+00,1,1.38e+01
"1/0367006438.52595",2014-12-18T18:14:02.821,13915,1309.00,37.04,36.77,"23:15:21",217.94,-1.300,0.470,160.05,4.10e+01,2,,2.08e+01,2.56e+00,1,1.39e+01
"1/0367006446.22710",2014-12-18T18:14:10.365,13915,1299.00,37.36,37.09,"23:13:11",217.95,-1.300,0.470,159.85,4.00e+01,1,,1.98e+01,2.56e+00,1,1.39e+01
"1/0367006453.58296",2014-12-18T18:14:17.908,13915,1289.00,37.67,37.40,"23:13:18",217.95,-1.290,0.480,159.65,4.30e+01,1,,2.29e+01,2.56e+00,1,1.40e+01
"1/0367006461.28346",2014-12-18T18:14:25.451,13915,1279.00,37.99,37.71,"23:11:08",217.96,-1.290,0.480,159.45,4.10e+01,2,,2.08e+01,,,
"1/0367006468.63932",2014-12-18T18:14:32.994,13915,1268.00,38.30,38.03,"23:11:15",217.96,-1.280,0.480,159.24,4.30e+01,2,,2.29e+01,,,
"1/0367006476.33982",2014-12-18T18:14:40.537,13915,1258.00,38.62,38.35,"23:11:23",217.96,-1.280,0.490,159.03,4.20e+01,1,,2.19e+01,2.58e+00,1,1.38e+01
"1/0367006484.04098",2014-12-18T18:14:48.081,13915,1248.00,38.94,38.67,"23:11:30",217.96,-1.270,0.490,158.81,3.90e+01,1,,1.89e+01,2.54e+00,1,1.41e+01
"1/0367006491.39684",2014-12-18T18:14:55.624,13915,1238.00,39.26,38.99,"23:09:20",217.97,-1.270,0.490,158.59,3.80e+01,1,,1.79e+01,2.49e+00,1,1.43e+01
"1/0367006499.09734",2014-12-18T18:15:03.167,13915,1228.00,39.59,39.31,"23:09:27",217.97,-1.260,0.500,158.37,4.10e+01,1,,2.08e+01,2.49e+00,1,1.43e+01
"1/0367006506.45320",2014-12-18T18:15:10.710,13915,1218.00,39.91,39.63,"23:09:35",217.97,-1.260,0.500,158.15,4.20e+01,2,,2.19e+01,2.47e+00,1,1.45e+01
"1/0367006514.15436",2014-12-18T18:15:18.254,13915,1208.00,40.24,39.96,"23:09:42",217.97,-1.260,0.500,157.92,4.60e+01,1,,2.62e+01,2.46e+00,1,1.45e+01
"1/0367006521.51022",2014-12-18T18:15:25.797,13915,1198.00,40.56,40.28,"23:09:49",217.97,-1.250,0.510,157.69,4.50e+01,1,,2.51e+01,2.47e+00,1,1.44e+01
"1/0367006529.21072",2014-12-18T18:15:33.340,13915,1188.00,40.89,40.61,"23:09:57",217.97,-1.250,0.510,157.45,4.50e+01,2,,2.51e+01,2.48e+00,1,1.44e+01
"1/0367006536.56658",2014-12-18T18:15:40.883,13915,1179.00,41.22,40.94,"23:10:04",217.97,-1.240,0.520,157.21,4.90e+01,1,,2.98e+01,2.46e+00,1,1.45e+01
"1/0367006544.26708",2014-12-18T18:15:48.426,13915,1169.00,41.55,41.27,"23:10:11",217.97,-1.240,0.520,156.97,4.80e+01,1,,2.86e+01,2.52e+00,1,1.41e+01
"1/0367006551.62359",2014-12-18T18:15:55.970,13915,1159.00,41.89,41.60,"23:10:19",217.97,-1.230,0.520,156.73,5.10e+01,2,,3.23e+01,2.54e+00,1,1.41e+01
"1/0367006559.32409",2014-12-18T18:16:03.513,13915,1149.00,42.22,41.93,"23:10:26",217.97,-1.230,0.530,156.48,5.20e+01,2,,3.35e+01,2.67e+00,1,1.34e+01
"1/0367006567.02459",2014-12-18T18:16:11.056,13915,1140.00,42.56,42.27,"23:12:51",217.96,-1.220,0.530,156.23,5.40e+01,2,,3.62e+01,2.65e+00,2,1.35e+01
"1/0367006574.38045",2014-12-18T18:16:18.599,13915,1130.00,42.89,42.60,"23:12:58",217.96,-1.220,0.540,155.97,5.40e+01,2,,3.62e+01,2.65e+00,1,1.35e+01
"1/0367006582.08095",2014-12-18T18:16:26.142,13915,1120.00,43.23,42.94,"23:13:06",217.96,-1.210,0.540,155.72,4.80e+01,1,,2.86e+01,2.61e+00,1,1.37e+01
"1/0367006589.43747",2014-12-18T18:16:33.686,13915,1111.00,43.57,43.28,"23:13:13",217.96,-1.210,0.550,155.46,4.70e+01,1,,2.74e+01,2.62e+00,1,1.37e+01
"1/0367006597.13797",2014-12-18T18:16:41.229,13915,1101.00,43.91,43.62,"23:15:38",217.95,-1.200,0.550,155.20,5.00e+01,2,,3.10e+01,2.63e+00,1,1.36e+01
"1/0367006604.49383",2014-12-18T18:16:48.772,13915,1092.00,44.25,43.96,"23:15:45",217.95,-1.200,0.550,154.93,4.90e+01,2,,2.98e+01,2.60e+00,1,1.37e+01
"1/0367006612.19433",2014-12-18T18:16:56.315,13915,1082.00,44.60,44.30,"23:18:10",217.94,-1.190,0.560,154.66,5.10e+01,2,,3.23e+01,2.59e+00,1,1.38e+01
"1/0367006619.55019",2014-12-18T18:17:03.858,13915,1073.00,44.94,44.65,"23:20:35",217.93,-1.190,0.560,154.39,5.20e+01,2,,3.35e+01,2.66e+00,1,1.34e+01
"1/0367006627.25135",2014-12-18T18:17:11.402,13915,1063.00,45.29,44.99,"23:20:42",217.93,-1.180,0.570,154.12,6.30e+01,2,,4.92e+01,2.73e+00,1,1.31e+01
"1/0367006634.60721",2014-12-18T18:17:18.945,13915,1054.00,45.64,45.34,"23:23:07",217.92,-1.180,0.570,153.84,6.70e+01,2,,5.57e+01,2.89e+00,1,1.24e+01
"1/0367006642.30771",2014-12-18T18:17:26.488,13915,1045.00,45.99,45.69,"23:25:32",217.91,-1.170,0.580,153.56,7.80e+01,2,,7.54e+01,3.01e+00,1,1.18e+01
"1/0367006650.00821",2014-12-18T18:17:34.031,13915,1035.00,46.34,46.04,"23:25:39",217.91,-1.160,0.580,153.28,8.50e+01,2,,8.96e+01,3.07e+00,1,1.16e+01
"1/0367006657.36407",2014-12-18T18:17:41.574,13915,1026.00,46.69,46.39,"23:28:04",217.90,-1.160,0.590,152.99,8.70e+01,2,,9.39e+01,3.18e+00,1,1.12e+01
"1/0367006665.06522",2014-12-18T18:17:49.118,13915,1017.00,47.04,46.75,"23:30:29",217.89,-1.150,0.590,152.70,7.90e+01,2,,7.74e+01,3.07e+00,1,1.16e+01
"1/0367006672.42108",2014-12-18T18:17:56.661,13915,1008.00,47.40,47.10,"23:32:54",217.88,-1.150,0.590,152.41,7.90e+01,2,,7.74e+01,3.00e+00,1,1.19e+01
"1/0367006680.12158",2014-12-18T18:18:04.204,13915,999.00,47.76,47.46,"23:37:36",217.86,-1.140,0.600,152.12,8.20e+01,2,,8.34e+01,2.95e+00,1,1.21e+01
"1/0367006687.47744",2014-12-18T18:18:11.747,13915,990.00,48.11,47.81,"23:40:01",217.85,-1.140,0.600,151.83,8.00e+01,2,,7.94e+01,2.88e+00,1,1.24e+01
"1/0367006695.17794",2014-12-18T18:18:19.290,13915,981.00,48.47,48.17,"23:42:26",217.84,-1.130,0.610,151.53,8.10e+01,2,,8.14e+01,2.90e+00,1,1.23e+01
"1/0367006702.53446",2014-12-18T18:18:26.834,13915,972.00,48.83,48.54,"23:44:51",217.83,-1.130,0.610,151.23,8.80e+01,2,,9.60e+01,2.88e+00,1,1.24e+01
"1/0367006710.23496",2014-12-18T18:18:34.377,13915,963.00,49.20,48.90,"23:49:33",217.81,-1.120,0.620,150.92,9.10e+01,2,,1.03e+02,2.88e+00,1,1.24e+01
"1/0367006717.59082",2014-12-18T18:18:41.920,13915,954.00,49.56,49.26,"23:51:58",217.80,-1.120,0.620,150.62,9.40e+01,2,,1.10e+02,,,
"1/0367006725.29132",2014-12-18T18:18:49.463,13915,945.00,49.93,49.63,"23:56:40",217.78,-1.110,0.630,150.31,1.00e+02,2,,1.24e+02,3.16e+00,1,1.13e+01
"1/0367006732.64718",2014-12-18T18:18:57.006,13915,937.00,50.29,49.99,"00:01:22",217.76,-1.100,0.630,150.00,1.00e+02,2,,1.24e+02,,,
"1/0367006740.34834",2014-12-18T18:19:04.550,13915,928.00,50.66,50.36,"00:03:47",217.75,-1.100,0.640,149.69,1.01e+02,2,,1.26e+02,,,
"1/0367006748.04884",2014-12-18T18:19:12.093,13915,919.00,51.03,50.73,"00:08:30",217.73,-1.090,0.640,149.37,9.10e+01,2,,1.03e+02,2.85e+00,1,1.25e+01
"1/0367006755.40470",2014-12-18T18:19:19.636,13915,911.00,51.40,51.10,"00:13:12",217.71,-1.090,0.650,149.05,8.40e+01,2,,8.75e+01,2.69e+00,2,1.33e+01
"1/0367006763.10520",2014-12-18T18:19:27.179,13915,902.00,51.77,51.47,"00:17:54",217.69,-1.080,0.650,148.73,7.80e+01,2,,7.54e+01,2.69e+00,2,1.33e+01
"1/0367006770.46106",2014-12-18T18:19:34.722,13915,894.00,52.15,51.85,"00:24:54",217.66,-1.080,0.650,148.41,8.10e+01,2,,8.14e+01,2.82e+00,1,1.27e+01
"1/0367006778.16221",2014-12-18T18:19:42.266,13915,885.00,52.52,52.22,"00:29:37",217.64,-1.070,0.660,148.09,8.70e+01,2,,9.39e+01,3.05e+00,1,1.17e+01
"1/0367006785.51807",2014-12-18T18:19:49.809,13915,877.00,52.90,52.60,"00:34:19",217.62,-1.060,0.660,147.76,9.60e+01,2,,1.14e+02,3.25e+00,1,1.10e+01
"1/0367006793.21857",2014-12-18T18:19:57.352,13915,868.00,53.28,52.98,"00:41:19",217.59,-1.060,0.670,147.43,9.00e+01,2,,1.00e+02,3.31e+00,2,1.08e+01
"1/0367006800.57443",2014-12-18T18:20:04.895,13915,860.00,53.66,53.36,"00:46:01",217.57,-1.050,0.670,147.10,9.30e+01,2,,1.07e+02,3.40e+00,1,1.05e+01
"1/0367006808.27493",2014-12-18T18:20:12.438,13915,852.00,54.04,53.74,"00:53:01",217.54,-1.050,0.680,146.77,9.50e+01,2,,1.12e+02,3.45e+00,1,1.03e+01
"1/0367006815.63145",2014-12-18T18:20:19.982,13915,844.00,54.42,54.13,"01:00:01",217.51,-1.040,0.680,146.43,8.40e+01,2,,8.75e+01,3.39e+00,1,1.05e+01
"1/0367006823.33195",2014-12-18T18:20:27.525,13915,835.00,54.80,54.51,"01:07:01",217.48,-1.030,0.690,146.09,8.10e+01,2,,8.14e+01,3.47e+00,2,1.03e+01
"1/0367006831.03245",2014-12-18T18:20:35.068,13915,827.00,55.19,54.90,"01:14:01",217.45,-1.030,0.690,145.75,8.30e+01,2,,8.54e+01,3.58e+00,1,9.98e+00
"1/0367006838.38831",2014-12-18T18:20:42.611,13915,819.00,55.58,55.28,"01:23:18",217.41,-1.020,0.700,145.41,8.50e+01,2,,8.96e+01,3.64e+00,1,9.82e+00
"1/0367006846.08881",2014-12-18T18:20:50.154,13915,811.00,55.96,55.67,"01:30:18",217.38,-1.010,0.700,145.07,9.40e+01,2,,1.10e+02,3.75e+00,1,9.52e+00
"1/0367006853.44533",2014-12-18T18:20:57.698,13915,803.00,56.35,56.06,"01:39:35",217.34,-1.010,0.710,144.72,1.02e+02,2,,1.29e+02,3.75e+00,1,9.52e+00
"1/0367006861.14583",2014-12-18T18:21:05.241,13915,796.00,56.74,56.45,"01:48:53",217.30,-1.000,0.710,144.37,1.05e+02,2,,1.37e+02,3.83e+00,1,9.33e+00
"1/0367006868.50169",2014-12-18T18:21:12.784,13915,788.00,57.14,56.85,"01:58:10",217.26,-1.000,0.720,144.02,1.22e+02,2,,1.85e+02,3.77e+00,1,9.48e+00
"1/0367006876.20219",2014-12-18T18:21:20.327,13915,780.00,57.53,57.24,"02:07:27",217.22,-0.990,0.720,143.67,1.14e+02,2,,1.61e+02,3.66e+00,1,9.76e+00
"1/0367006883.55805",2014-12-18T18:21:27.870,13915,772.00,57.92,57.64,"02:16:45",217.18,-0.980,0.730,143.31,,,,,3.66e+00,1,9.76e+00
"1/0367006891.25920",2014-12-18T18:21:35.414,13915,765.00,58.32,58.04,"02:28:20",217.13,-0.980,0.730,142.96,1.04e+02,2,,1.34e+02,,,
"1/0367006898.61506",2014-12-18T18:21:42.957,13915,757.00,58.72,58.44,"02:37:37",217.09,-0.970,0.740,142.60,9.40e+01,2,,1.10e+02,3.33e+00,1,1.07e+01
"1/0367006906.31556",2014-12-18T18:21:50.500,13915,750.00,59.12,58.84,"02:49:12",217.04,-0.960,0.740,142.24,9.20e+01,2,,1.05e+02,3.29e+00,2,1.09e+01
"1/0367006914.01606",2014-12-18T18:21:58.043,13915,742.00,59.52,59.24,"03:03:04",216.98,-0.960,0.750,141.88,9.40e+01,2,,1.10e+02,3.37e+00,1,1.06e+01
"1/0367006921.37192",2014-12-18T18:22:05.586,13915,735.00,59.92,59.64,"03:14:39",216.93,-0.950,0.750,141.51,9.40e+01,2,,1.10e+02,3.35e+00,1,1.06e+01
"1/0367006929.07308",2014-12-18T18:22:13.130,13915,728.00,60.32,60.05,"03:28:32",216.87,-0.940,0.750,141.15,9.60e+01,2,,1.14e+02,3.44e+00,1,1.04e+01
"1/0367006936.42894",2014-12-18T18:22:20.673,13915,720.00,60.73,60.45,"03:40:07",216.82,-0.940,0.760,140.78,9.70e+01,2,,1.17e+02,3.50e+00,1,1.02e+01
"1/0367006944.12944",2014-12-18T18:22:28.216,13915,713.00,61.13,60.86,"03:56:16",216.75,-0.930,0.760,140.41,9.70e+01,2,,1.17e+02,3.62e+00,1,9.87e+00
"1/0367006951.48530",2014-12-18T18:22:35.759,13915,706.00,61.54,61.27,"04:10:09",216.69,-0.920,0.770,140.03,1.01e+02,2,,1.26e+02,3.77e+00,1,9.48e+00
"1/0367006959.18580",2014-12-18T18:22:43.302,13915,699.00,61.95,61.68,"04:26:19",216.62,-0.920,0.770,139.66,9.80e+01,2,,1.19e+02,3.64e+00,1,9.80e+00
"1/0367006966.54232",2014-12-18T18:22:50.846,13915,692.00,62.36,62.09,"04:42:29",216.55,-0.910,0.780,139.28,9.90e+01,2,,1.22e+02,3.53e+00,1,1.01e+01
"1/0367006974.24282",2014-12-18T18:22:58.389,13915,685.00,62.77,62.50,"04:58:39",216.48,-0.900,0.780,138.91,9.70e+01,2,,1.17e+02,3.51e+00,2,1.02e+01
"1/0367006981.59868",2014-12-18T18:23:05.932,13915,678.00,63.18,62.92,"05:17:06",216.40,-0.900,0.790,138.53,1.00e+02,2,,1.24e+02,3.56e+00,1,1.00e+01
"1/0367006989.29918",2014-12-18T18:23:13.475,13915,671.00,63.59,63.34,"05:35:33",216.32,-0.890,0.790,138.15,1.07e+02,2,,1.42e+02,3.49e+00,1,1.02e+01
"1/0367006997.00033",2014-12-18T18:23:21.019,13915,665.00,64.01,63.75,"05:54:01",216.24,-0.880,0.800,137.76,1.10e+02,2,,1.50e+02,3.43e+00,1,1.04e+01
"1/0367007004.35619",2014-12-18T18:23:28.562,13915,658.00,64.42,64.17,"06:14:46",216.15,-0.880,0.800,137.38,1.14e+02,2,,1.61e+02,3.41e+00,2,1.05e+01
"1/0367007012.05669",2014-12-18T18:23:36.105,13915,652.00,64.84,64.59,"06:35:31",216.06,-0.870,0.810,136.99,1.13e+02,2,,1.58e+02,3.38e+00,1,1.06e+01
"1/0367007019.41255",2014-12-18T18:23:43.648,13915,645.00,65.26,65.01,"06:56:16",215.97,-0.860,0.810,136.60,1.12e+02,2,,1.56e+02,3.45e+00,1,1.03e+01
"1/0367007027.11305",2014-12-18T18:23:51.191,13915,639.00,65.68,65.43,"07:19:18",215.87,-0.860,0.810,136.21,1.12e+02,2,,1.56e+02,3.36e+00,1,1.06e+01
"1/0367007034.46957",2014-12-18T18:23:58.735,13915,632.00,66.10,65.86,"07:44:38",215.76,-0.850,0.820,135.82,1.08e+02,2,,1.45e+02,3.22e+00,1,1.11e+01
"1/0367007042.17007",2014-12-18T18:24:06.278,13915,626.00,66.52,66.28,"08:09:58",215.65,-0.840,0.820,135.43,1.09e+02,2,,1.47e+02,3.15e+00,1,1.14e+01
"1/0367007049.52593",2014-12-18T18:24:13.821,13915,620.00,66.95,66.71,"08:35:18",215.54,-0.840,0.830,135.03,1.09e+02,2,,1.47e+02,3.06e+00,1,1.17e+01
"1/0367007057.22643",2014-12-18T18:24:21.364,13915,613.00,67.37,67.14,"09:02:55",215.42,-0.830,0.830,134.64,1.08e+02,2,,1.45e+02,2.95e+00,1,1.21e+01
"1/0367007064.58229",2014-12-18T18:24:28.907,13915,607.00,67.80,67.56,"09:32:50",215.29,-0.820,0.840,134.24,1.08e+02,2,,1.45e+02,3.04e+00,1,1.18e+01
"1/0367007072.28344",2014-12-18T18:24:36.451,13915,601.00,68.22,67.99,"10:02:45",215.16,-0.810,0.840,133.84,9.80e+01,2,,1.19e+02,2.87e+00,1,1.24e+01
"1/0367007079.63930",2014-12-18T18:24:43.994,13915,595.00,68.65,68.42,"10:34:58",215.02,-0.810,0.850,133.44,1.00e+02,2,,1.24e+02,2.84e+00,2,1.26e+01
"1/0367007087.33981",2014-12-18T18:24:51.537,13915,590.00,69.08,68.86,"11:09:28",214.87,-0.800,0.850,133.03,1.07e+02,2,,1.42e+02,2.85e+00,1,1.25e+01
"1/0367007095.04031",2014-12-18T18:24:59.080,13915,584.00,69.51,69.29,"11:43:58",214.72,-0.790,0.860,132.63,1.15e+02,2,,1.64e+02,2.76e+00,1,1.30e+01
"1/0367007102.39617",2014-12-18T18:25:06.623,13915,578.00,69.94,69.72,"12:23:03",214.55,-0.790,0.860,132.22,1.10e+02,2,,1.50e+02,2.56e+00,1,1.39e+01
"1/0367007110.09732",2014-12-18T18:25:14.167,13915,572.00,70.37,70.16,"13:02:08",214.38,-0.780,0.860,131.82,1.04e+02,2,,1.34e+02,2.45e+00,1,1.46e+01
"1/0367007117.45318",2014-12-18T18:25:21.710,13915,567.00,70.80,70.59,"13:43:30",214.20,-0.770,0.870,131.41,1.14e+02,2,,1.61e+02,2.38e+00,2,1.50e+01
"1/0367007125.15368",2014-12-18T18:25:29.253,13915,561.00,71.23,71.03,"14:27:10",214.01,-0.760,0.870,131.00,1.11e+02,2,,1.53e+02,2.27e+00,2,1.57e+01
"1/0367007132.50954",2014-12-18T18:25:36.796,13915,556.00,71.67,71.47,"15:13:08",213.81,-0.760,0.880,130.58,1.12e+02,2,,1.56e+02,2.32e+00,2,1.54e+01
"1/0367007140.21004",2014-12-18T18:25:44.339,13915,551.00,72.10,71.91,"16:01:23",213.60,-0.750,0.880,130.17,1.30e+02,2,,2.10e+02,2.26e+00,2,1.58e+01
"1/0367007147.56656",2014-12-18T18:25:51.883,13915,545.00,72.54,72.35,"16:54:13",213.37,-0.740,0.890,129.76,1.44e+02,2,,2.57e+02,2.31e+00,2,1.55e+01
"1/0367007155.26706",2014-12-18T18:25:59.426,13915,540.00,72.98,72.79,"17:47:03",213.14,-0.730,0.890,129.34,1.47e+02,2,,2.68e+02,2.37e+00,2,1.51e+01
"1/0367007162.62292",2014-12-18T18:26:06.969,13915,535.00,73.41,73.23,"18:46:46",212.88,-0.730,0.890,128.92,1.58e+02,2,,3.10e+02,2.42e+00,1,1.48e+01
"1/0367007170.32342",2014-12-18T18:26:14.512,13915,530.00,73.85,73.67,"19:46:28",212.62,-0.720,0.900,128.50,1.64e+02,2,,3.34e+02,2.49e+00,1,1.43e+01
"1/0367007178.02392",2014-12-18T18:26:22.055,13915,525.00,74.29,74.11,"20:53:03",212.33,-0.710,0.900,128.08,1.63e+02,2,,3.29e+02,2.52e+00,1,1.41e+01
"1/0367007185.38043",2014-12-18T18:26:29.599,13915,520.00,74.73,74.56,"22:01:56",212.03,-0.700,0.910,127.66,1.71e+02,2,,3.63e+02,2.67e+00,1,1.34e+01
"1/0367007193.08093",2014-12-18T18:26:37.142,13915,516.00,75.17,75.00,"23:17:41",211.70,-0.700,0.910,127.24,1.64e+02,2,,3.34e+02,2.71e+00,1,1.32e+01
"1/0367007200.43680",2014-12-18T18:26:44.685,13915,511.00,75.61,75.45,"00:35:44",211.36,-0.690,0.910,126.81,1.57e+02,2,,3.06e+02,2.69e+00,1,1.33e+01
"1/0367007208.13730",2014-12-18T18:26:52.228,13915,506.00,76.05,75.89,"02:00:39",210.99,-0.680,0.920,126.39,1.58e+02,2,,3.10e+02,2.75e+00,2,1.30e+01
"1/0367007215.49316",2014-12-18T18:26:59.771,13915,502.00,76.49,76.34,"03:32:27",210.59,-0.670,0.920,125.96,1.57e+02,2,,3.06e+02,2.63e+00,1,1.36e+01
"1/0367007223.19431",2014-12-18T18:27:07.315,13915,497.00,76.93,76.78,"05:11:07",210.16,-0.660,0.930,125.53,1.63e+02,2,,3.29e+02,2.49e+00,2,1.43e+01
"1/0367007230.55017",2014-12-18T18:27:14.858,13915,493.00,77.37,77.23,"06:56:40",209.70,-0.660,0.930,125.10,1.67e+02,2,,3.46e+02,2.44e+00,2,1.46e+01
"1/0367007238.25067",2014-12-18T18:27:22.401,13915,489.00,77.82,77.67,"08:49:05",209.21,-0.650,0.930,124.67,1.68e+02,2,,3.50e+02,2.42e+00,1,1.48e+01
"1/0367007245.60653",2014-12-18T18:27:29.944,13915,485.00,78.26,78.12,"10:52:58",208.67,-0.640,0.940,124.24,1.68e+02,2,,3.50e+02,2.46e+00,1,1.45e+01
"1/0367007253.30703",2014-12-18T18:27:37.487,13915,480.00,78.70,78.57,"13:06:01",208.09,-0.630,0.940,123.81,1.67e+02,2,,3.46e+02,2.57e+00,1,1.39e+01
"1/0367007261.00819",2014-12-18T18:27:45.031,13915,476.00,79.14,79.01,"15:30:31",207.46,-0.630,0.950,123.37,1.68e+02,2,,3.50e+02,2.71e+00,1,1.32e+01
"1/0367007268.36405",2014-12-18T18:27:52.574,13915,473.00,79.58,79.46,"18:06:29",206.78,-0.620,0.950,122.94,1.70e+02,2,,3.58e+02,2.88e+00,1,1.24e+01
"1/0367007276.06455",2014-12-18T18:28:00.117,13915,469.00,80.02,79.90,"20:58:30",206.03,-0.610,0.950,122.50,1.75e+02,2,,3.80e+02,3.01e+00,1,1.18e+01
"1/0367007283.42041",2014-12-18T18:28:07.660,13915,465.00,80.45,80.34,"00:08:51",205.20,-0.600,0.960,122.06,1.95e+02,2,,4.72e+02,,,
"1/0367007291.12091",2014-12-18T18:28:15.203,13915,461.00,80.89,80.78,"03:35:14",204.30,-0.590,0.960,121.62,1.99e+02,2,,4.91e+02,,,
"1/0367007298.47742",2014-12-18T18:28:22.747,13915,458.00,81.33,81.22,"07:24:32",203.30,-0.590,0.960,121.19,2.06e+02,2,,5.26e+02,,,
"1/0367007306.17792",2014-12-18T18:28:30.290,13915,454.00,81.76,81.66,"11:39:03",202.19,-0.580,0.970,120.74,2.01e+02,2,,5.01e+02,,,
"1/0367007313.53378",2014-12-18T18:28:37.833,13915,451.00,82.19,82.09,"16:23:22",200.95,-0.570,0.970,120.30,1.86e+02,2,,4.29e+02,,,
"1/0367007321.23429",2014-12-18T18:28:45.376,13915,447.00,82.61,82.52,"21:42:03",199.56,-0.560,0.980,119.86,1.75e+02,2,,3.80e+02,,,
"1/0367007328.59015",2014-12-18T18:28:52.919,13915,444.00,83.03,82.95,"03:37:24",198.01,-0.550,0.980,119.42,1.61e+02,2,,3.21e+02,3.02e+00,1,1.18e+01
"1/0367007336.29130",2014-12-18T18:29:00.463,13915,441.00,83.45,83.37,"10:23:11",196.24,-0.550,0.980,118.97,1.55e+02,2,,2.98e+02,3.05e+00,1,1.17e+01
"1/0367007343.64716",2014-12-18T18:29:08.006,13915,438.00,83.86,83.79,"18:03:58",194.23,-0.540,0.990,118.53,1.51e+02,2,,2.83e+02,2.91e+00,1,1.23e+01
"1/0367007351.34766",2014-12-18T18:29:15.549,13915,435.00,84.26,84.19,"02:51:12",191.93,-0.530,0.990,118.08,1.65e+02,2,,3.38e+02,2.96e+00,1,1.21e+01
"1/0367007359.04816",2014-12-18T18:29:23.092,13915,432.00,84.65,84.59,"12:58:40",189.28,-0.520,0.990,117.63,1.68e+02,2,,3.50e+02,3.20e+00,1,1.12e+01
"1/0367007366.40402",2014-12-18T18:29:30.635,13915,429.00,85.03,84.97,"00:40:05",186.22,-0.510,1.000,117.19,1.82e+02,2,,4.11e+02,,,
"1/0367007374.10518",2014-12-18T18:29:38.179,13915,427.00,85.39,85.34,"14:18:23",182.65,-0.500,1.000,116.74,2.01e+02,2,,5.01e+02,,,
"1/0367007381.46104",2014-12-18T18:29:45.722,13915,424.00,85.73,85.68,"06:14:12",178.48,-0.500,1.000,116.29,2.09e+02,2,,5.42e+02,,,
"1/0367007389.16154",2014-12-18T18:29:53.265,13915,422.00,86.05,86.00,"00:50:27",173.61,-0.490,1.010,115.84,2.19e+02,2,,5.95e+02,,,
"1/0367007396.51740",2014-12-18T18:30:00.808,13915,419.00,86.33,86.28,"22:30:02",167.94,-0.480,1.010,115.39,2.16e+02,2,,5.79e+02,2.84e+00,1,1.26e+01
"1/0367007404.21790",2014-12-18T18:30:08.351,13915,417.00,86.57,86.53,"23:33:36",161.38,-0.470,1.010,114.94,2.16e+02,2,,5.79e+02,2.76e+00,1,1.29e+01
"1/0367007411.57441",2014-12-18T18:30:15.895,13915,415.00,86.76,86.72,"03:58:51",153.94,-0.460,1.020,114.48,2.12e+02,2,,5.57e+02,,,
"1/0367007419.27491",2014-12-18T18:30:23.438,13915,413.00,86.89,86.84,"11:20:34",145.73,-0.450,1.020,114.03,1.86e+02,2,,4.29e+02,2.74e+00,1,1.30e+01
"1/0367007426.63077",2014-12-18T18:30:30.981,13915,411.00,86.95,86.90,"20:39:10",137.01,-0.450,1.020,113.58,1.76e+02,2,,3.84e+02,2.64e+00,1,1.35e+01
"1/0367007434.33127",2014-12-18T18:30:38.524,13915,409.00,86.93,86.89,"06:32:08",128.14,-0.440,1.020,113.12,1.54e+02,2,,2.94e+02,2.51e+00,1,1.42e+01
"1/0367007442.03178",2014-12-18T18:30:46.067,13915,407.00,86.85,86.80,"15:18:39",119.56,-0.430,1.030,112.67,1.85e+02,2,,4.24e+02,2.81e+00,1,1.27e+01
"1/0367007449.38829",2014-12-18T18:30:53.611,13915,405.00,86.69,86.65,"21:45:22",111.59,-0.420,1.030,112.21,1.77e+02,2,,3.89e+02,2.86e+00,1,1.25e+01